period_start,C,m1,H,J0,J1,J2,J3,J4,J5,JA,JB,JC,JD,JJ,JK,JN,#
2014-10-21 00:00:12,0.02,0.13,0.00,23.17,27.28,30.02,4.74,26.63,1014.17,2037.02,3395.16,3301.92,3572.66,350.25,346.77,10.84,0000 0000 0000 0000 000000
2014-10-21 00:05:13,0.04,0.13,0.00,23.10,27.27,30.00,4.75,26.73,1014.10,2037.03,3395.01,3301.50,3572.10,349.63,346.37,10.87,0000 0000 0000 0000 000000
2014-10-21 00:10:14,0.01,0.13,0.00,23.16,27.27,29.99,4.79,26.82,1014.08,2037.02,3395.00,3301.32,3572.01,349.96,346.58,10.90,0000 0000 0000 0000 000000
2014-10-21 00:15:15,0.01,0.13,0.00,23.14,27.27,29.99,4.72,26.71,1014.04,2037.04,3394.91,3301.06,3571.99,349.60,346.36,10.93,0000 0000 0000 0000 000000
2014-10-21 00:20:17,0.02,0.13,0.00,23.16,27.27,29.98,4.83,26.85,1013.85,2037.02,3394.16,3301.00,3571.95,351.10,347.64,10.96,0000 0000 0000 0000 000000
2014-10-21 00:25:18,0.01,0.13,0.00,23.23,27.27,29.97,4.81,26.82,1013.71,2037.02,3394.00,3301.00,3571.49,349.69,346.29,10.99,0000 0000 0000 0000 000000
2014-10-21 00:30:20,0.03,0.13,0.00,23.19,27.27,29.98,4.73,26.78,1013.70,2037.03,3393.63,3300.91,3571.04,349.63,346.21,11.01,0000 0000 0000 0000 000000
2014-10-21 00:35:21,0.04,0.13,0.00,23.12,27.27,29.95,4.71,26.80,1013.69,2037.03,3393.01,3300.32,3570.97,349.57,345.93,11.04,0000 0000 0000 0000 000000
2014-10-21 00:40:22,0.04,0.14,0.00,23.20,27.27,29.97,4.71,26.87,1013.71,2037.03,3392.35,3300.01,3570.33,349.30,345.70,11.07,0000 0000 0000 0000 000000
2014-10-21 00:45:23,0.01,0.14,0.00,23.20,27.27,29.97,4.70,26.64,1013.71,2037.06,3392.01,3300.00,3570.03,349.91,346.43,11.10,0000 0000 0000 0000 000000
2014-10-21 00:50:24,0.01,0.14,0.00,23.11,27.27,29.97,4.73,26.71,1013.69,2037.03,3391.83,3299.98,3569.98,349.84,346.18,11.13,0000 0000 0000 0000 000000
2014-10-21 00:55:25,0.03,0.14,0.00,23.06,27.27,29.92,4.71,26.67,1013.69,2037.08,3391.18,3299.90,3569.82,349.34,346.21,11.16,0000 0000 0000 0000 000000
2014-10-21 01:00:26,0.04,0.14,0.00,23.15,27.27,29.93,4.75,26.78,1013.68,2037.10,3391.00,3299.27,3569.13,350.10,346.66,11.19,0000 0000 0000 0000 000000
2014-10-21 01:05:28,0.02,0.14,0.00,23.23,27.27,29.94,4.75,26.80,1013.59,2037.15,3390.97,3299.05,3569.00,349.90,346.03,11.22,0000 0000 0000 0000 000000
2014-10-21 01:10:29,0.03,0.14,0.00,23.29,27.27,29.99,4.78,26.73,1013.38,2037.15,3390.47,3299.00,3568.81,350.23,346.53,11.25,0000 0000 0000 0000 000000
2014-10-21 01:15:31,0.02,0.14,0.00,23.27,27.27,30.02,4.78,26.68,1013.33,2037.13,3390.00,3298.97,3568.16,350.13,346.46,11.28,0000 0000 0000 0000 000000
2014-10-21 01:20:32,0.03,0.14,0.00,23.26,27.27,30.01,4.79,26.63,1013.39,2037.27,3389.87,3298.91,3568.00,350.19,346.47,11.31,0000 0000 0000 0000 000000
2014-10-21 01:25:33,0.06,0.14,0.00,23.27,27.28,30.04,4.73,26.82,1013.58,2037.31,3389.11,3298.39,3567.98,349.66,346.05,11.34,0000 0000 0000 0000 000000
2014-10-21 01:30:34,-0.01,0.14,0.00,23.30,27.30,30.06,4.75,26.70,1013.64,2037.08,3388.88,3298.02,3567.28,350.31,346.60,11.37,0000 0000 0000 0000 000000
2014-10-21 01:35:35,0.02,0.14,0.00,23.28,27.30,30.06,4.72,26.72,1013.66,2037.03,3388.06,3297.98,3566.97,350.03,346.65,11.40,0000 0000 0000 0000 000000
2014-10-21 01:40:37,0.06,0.14,0.00,23.27,27.30,30.07,4.71,26.81,1013.65,2037.02,3387.83,3297.50,3566.28,349.49,345.87,11.42,0000 0000 0000 0000 000000
2014-10-21 01:45:38,0.02,0.15,0.00,23.33,27.31,30.10,4.78,26.71,1013.57,2037.01,3387.10,3297.04,3566.00,350.21,346.54,11.45,0000 0000 0000 0000 000000
2014-10-21 01:50:40,0.03,0.15,0.00,23.34,27.32,30.09,4.72,26.69,1013.59,2037.00,3386.53,3296.99,3565.79,349.73,346.01,11.48,0000 0000 0000 0000 000000
2014-10-21 01:55:41,0.05,0.15,0.00,23.34,27.32,30.10,4.79,26.78,1013.41,2037.01,3385.94,3296.59,3565.05,349.78,346.26,11.51,0000 0000 0000 0000 000000
2014-10-21 02:00:43,0.04,0.15,0.00,23.36,27.32,30.08,4.73,26.79,1013.23,2037.01,3385.26,3296.04,3564.85,349.76,345.82,11.54,0000 0000 0000 0000 000000
2014-10-21 02:05:44,0.02,0.15,0.00,23.35,27.33,30.09,4.82,26.88,1013.22,2037.01,3384.97,3296.00,3564.12,350.43,346.62,11.57,0000 0000 0000 0000 000000
2014-10-21 02:10:45,0.03,0.15,0.00,23.36,27.34,30.11,4.68,26.76,1013.29,2037.00,3384.21,3295.94,3563.98,349.74,346.06,11.60,0000 0000 0000 0000 000000
2014-10-21 02:15:46,0.04,0.15,0.00,23.37,27.35,30.10,4.79,26.82,1013.28,2037.00,3383.95,3295.48,3563.45,350.49,346.73,11.63,0000 0000 0000 0000 000000
2014-10-21 02:20:47,0.03,0.15,0.00,23.37,27.35,30.11,4.78,26.85,1013.33,2037.00,3383.16,3295.02,3562.98,350.09,346.17,11.66,0000 0000 0000 0000 000000
2014-10-21 02:25:48,0.06,0.15,0.00,23.38,27.35,30.10,4.75,26.83,1013.33,2037.00,3382.57,3294.76,3562.25,349.66,345.88,11.69,0000 0000 0000 0000 000000
2014-10-21 02:30:50,0.03,0.16,0.00,23.37,27.35,30.11,4.73,26.71,1013.26,2037.00,3381.97,3294.11,3561.98,350.24,346.45,11.72,0000 0000 0000 0000 000000
2014-10-21 02:35:51,0.04,0.16,0.00,23.39,27.35,30.13,4.75,27.00,1013.25,2036.99,3381.20,3294.00,3561.35,350.05,346.05,11.75,0000 0000 0000 0000 000000
2014-10-21 02:40:53,0.05,0.16,0.00,23.41,27.35,30.12,4.67,26.89,1013.26,2036.99,3380.61,3293.54,3560.99,349.16,345.21,11.78,0000 0000 0000 0000 000000
2014-10-21 02:45:54,0.04,0.16,0.00,23.41,27.35,30.12,4.80,26.68,1013.22,2036.99,3380.01,3293.04,3560.47,350.19,346.26,11.81,0000 0000 0000 0000 000000
2014-10-21 02:50:55,0.02,0.16,0.00,23.40,27.35,30.12,4.76,26.77,1013.21,2036.99,3379.46,3293.00,3560.01,349.73,345.78,11.83,0000 0000 0000 0000 000000
2014-10-21 02:55:56,0.03,0.16,0.00,23.40,27.35,30.10,4.70,26.77,1013.21,2036.99,3378.90,3292.73,3559.74,349.64,345.70,11.86,0000 0000 0000 0000 000000
2014-10-21 03:00:58,0.06,0.16,0.00,23.40,27.36,30.12,4.76,26.82,1013.20,2036.99,3378.10,3292.06,3559.03,349.74,345.51,11.89,0000 0000 0000 0000 000000
2014-10-21 03:05:59,0.04,0.17,0.00,23.37,27.37,30.12,4.67,26.74,1013.20,2036.99,3377.34,3291.95,3558.53,349.54,345.60,11.92,0000 0000 0000 0000 000000
2014-10-21 03:11:00,0.06,0.17,0.00,23.38,27.37,30.11,4.74,26.80,1013.19,2036.98,3376.68,3291.25,3558.00,349.33,345.56,11.95,0000 0000 0000 0000 000000
2014-10-21 03:16:01,0.03,0.17,0.00,23.41,27.37,30.10,4.71,26.80,1013.13,2036.98,3375.99,3291.00,3557.46,349.65,345.67,11.98,0000 0000 0000 0000 000000
2014-10-21 03:21:03,0.05,0.17,0.00,23.39,27.37,30.11,4.81,26.77,1013.05,2036.98,3375.14,3290.69,3557.00,350.50,346.70,12.01,0000 0000 0000 0000 000000
2014-10-21 03:26:04,0.05,0.17,0.00,23.38,27.37,30.12,4.75,26.84,1013.05,2036.98,3374.52,3290.09,3556.49,350.13,346.24,12.04,0000 0000 0000 0000 000000
2014-10-21 03:31:05,0.01,0.17,0.00,23.41,27.37,30.12,4.77,26.78,1012.87,2036.99,3373.91,3290.00,3556.00,350.54,346.18,12.07,0000 0000 0000 0000 000000
2014-10-21 03:36:06,0.06,0.17,0.00,23.41,27.37,30.13,4.70,26.98,1012.89,2036.98,3373.09,3289.62,3555.53,349.90,345.82,12.10,0000 0000 0000 0000 000000
2014-10-21 03:41:07,0.04,0.18,0.00,23.41,27.37,30.12,4.74,26.85,1012.94,2036.97,3372.38,3289.02,3555.01,350.22,346.00,12.13,0000 0000 0000 0000 000000
2014-10-21 03:46:09,0.01,0.18,0.00,23.44,27.37,30.11,4.74,26.85,1012.81,2036.97,3372.00,3289.00,3554.65,349.31,345.26,12.16,0000 0000 0000 0000 000000
2014-10-21 03:51:10,0.03,0.18,0.00,23.41,27.37,30.10,4.75,26.77,1012.76,2036.99,3371.44,3288.97,3554.04,349.76,345.87,12.19,0000 0000 0000 0000 000000
2014-10-21 03:56:11,0.02,0.18,0.00,23.37,27.37,30.12,4.77,26.86,1012.79,2036.98,3371.00,3288.62,3553.96,350.22,346.36,12.22,0000 0000 0000 0000 000000
2014-10-21 04:01:13,0.05,0.18,0.00,23.36,27.37,30.10,4.73,26.77,1012.76,2036.98,3370.55,3288.09,3553.37,350.11,345.91,12.24,0000 0000 0000 0000 000000
2014-10-21 04:06:14,0.01,0.18,0.00,23.40,27.37,30.13,4.71,26.77,1012.73,2036.96,3370.01,3288.00,3553.00,349.65,345.49,12.27,0000 0000 0000 0000 000000
2014-10-21 04:11:16,0.01,0.18,0.00,23.40,27.37,30.12,4.71,26.76,1012.72,2036.91,3369.72,3288.00,3552.96,349.77,345.86,12.30,0000 0000 0000 0000 000000
2014-10-21 04:16:16,0.04,0.18,0.00,23.40,27.37,30.12,4.76,26.86,1012.71,2036.94,3369.05,3287.99,3552.40,349.81,345.71,12.33,0000 0000 0000 0000 000000
2014-10-21 04:21:18,0.01,0.18,0.00,23.41,27.37,30.11,4.76,26.88,1012.72,2036.95,3368.97,3287.90,3552.02,349.50,345.34,12.36,0000 0000 0000 0000 000000
2014-10-21 04:26:19,0.01,0.18,0.00,23.42,27.37,30.11,4.73,26.90,1012.72,2036.78,3368.31,3287.33,3551.95,349.07,344.91,12.39,0000 0000 0000 0000 000000
2014-10-21 04:31:20,0.03,0.18,0.00,23.42,27.37,30.11,4.73,26.89,1012.72,2036.78,3367.99,3287.04,3551.39,349.62,345.46,12.42,0000 0000 0000 0000 000000
2014-10-21 04:36:21,0.03,0.18,0.00,23.41,27.37,30.12,4.72,26.94,1012.73,2036.72,3367.36,3287.00,3551.01,349.59,345.49,12.45,0000 0000 0000 0000 000000
2014-10-21 04:41:22,-0.01,0.18,0.00,23.38,27.37,30.13,4.81,26.82,1012.74,2036.61,3366.99,3287.00,3550.64,350.51,346.46,12.48,0000 0000 0000 0000 000000
2014-10-21 04:46:24,0.05,0.19,0.00,23.39,27.37,30.14,4.75,26.95,1012.79,2036.72,3366.38,3286.98,3550.07,349.94,345.67,12.51,0000 0000 0000 0000 000000
2014-10-21 04:51:25,0.01,0.19,0.00,23.41,27.37,30.12,4.78,26.86,1012.72,2036.79,3366.00,3286.97,3550.00,349.30,345.22,12.54,0000 0000 0000 0000 000000
2014-10-21 04:56:26,0.04,0.19,0.00,23.35,27.37,30.13,4.79,26.73,1012.71,2036.69,3365.34,3286.58,3549.41,350.45,346.20,12.57,0000 0000 0000 0000 000000
2014-10-21 05:01:27,0.02,0.19,0.00,23.35,27.37,30.12,4.81,26.86,1012.72,2036.72,3364.99,3286.09,3549.01,350.89,346.61,12.60,0000 0000 0000 0000 000000
2014-10-21 05:06:29,0.01,0.19,0.00,23.38,27.37,30.14,4.77,26.96,1012.72,2036.64,3364.31,3286.01,3548.79,349.73,345.65,12.63,0000 0000 0000 0000 000000
2014-10-21 05:11:30,0.01,0.19,0.00,23.30,27.37,30.12,4.76,26.99,1012.71,2036.53,3363.94,3286.00,3548.07,349.88,345.77,12.66,0000 0000 0000 0000 000000
2014-10-21 05:16:31,0.04,0.19,0.00,23.23,27.37,30.08,4.74,26.91,1012.71,2036.51,3363.15,3285.99,3548.00,350.19,346.33,12.68,0000 0000 0000 0000 000000
2014-10-21 05:21:33,0.04,0.19,0.00,23.28,27.36,30.07,4.71,27.02,1012.71,2036.63,3362.98,3285.98,3547.53,349.67,345.57,12.71,0000 0000 0000 0000 000000
2014-10-21 05:26:34,-0.02,0.19,0.00,23.30,27.35,30.08,4.70,26.99,1012.71,2036.43,3362.24,3285.90,3547.02,349.83,345.48,12.74,0000 0000 0000 0000 000000
2014-10-21 05:31:35,0.04,0.19,0.00,23.31,27.35,30.07,4.78,27.02,1012.72,2036.36,3361.82,3285.56,3546.82,349.68,345.83,12.77,0000 0000 0000 0000 000000
2014-10-21 05:36:37,0.03,0.19,0.00,23.35,27.35,30.06,4.76,27.18,1012.71,2036.32,3361.03,3285.12,3546.07,349.91,345.92,12.80,0000 0000 0000 0000 000000
2014-10-21 05:41:38,0.04,0.19,0.00,23.32,27.35,30.05,4.71,27.18,1012.71,2036.23,3360.21,3285.01,3545.80,349.81,345.84,12.83,0000 0000 0000 0000 000000
2014-10-21 05:46:39,0.02,0.19,0.00,23.25,27.35,30.06,4.75,27.11,1012.70,2036.39,3359.79,3285.00,3545.09,350.15,346.23,12.86,0000 0000 0000 0000 000000
2014-10-21 05:51:41,0.06,0.20,0.00,23.27,27.34,30.06,4.73,27.25,1012.66,2036.43,3359.05,3285.00,3544.95,350.07,345.82,12.89,0000 0000 0000 0000 000000
2014-10-21 05:56:42,0.02,0.20,0.00,23.28,27.33,30.05,4.82,27.39,1012.50,2036.35,3358.41,3284.98,3544.14,349.98,345.94,12.92,0000 0000 0000 0000 000000
2014-10-21 06:01:43,0.02,0.20,0.00,23.30,27.32,30.05,4.74,27.13,1012.41,2036.36,3357.71,3284.93,3543.92,350.17,346.01,12.95,0000 0000 0000 0000 000000
2014-10-21 06:06:44,0.05,0.20,0.00,23.32,27.32,30.05,4.78,27.43,1012.25,2036.31,3356.86,3284.53,3543.12,349.89,345.65,12.98,0000 0000 0000 0000 000000
2014-10-21 06:11:45,0.07,0.20,0.00,23.31,27.32,30.04,4.80,27.23,1012.24,2036.31,3355.82,3284.02,3542.37,350.29,345.93,13.01,0000 0000 0000 0000 000000
2014-10-21 06:16:46,0.05,0.20,0.00,23.33,27.32,30.05,4.79,27.25,1012.23,2036.51,3354.97,3284.00,3541.86,350.01,345.81,13.04,0000 0000 0000 0000 000000
2014-10-21 06:21:48,0.04,0.20,0.00,23.32,27.32,30.06,4.75,27.22,1012.22,2036.39,3353.93,3283.96,3541.04,350.29,346.13,13.06,0000 0000 0000 0000 000000
2014-10-21 06:26:49,0.10,0.21,0.00,23.26,27.32,30.07,4.78,27.35,1012.22,2036.61,3352.87,3283.79,3540.27,350.16,345.85,13.09,0000 0000 0000 0000 000000
2014-10-21 06:31:50,0.10,0.21,0.00,23.23,27.32,30.04,4.78,27.20,1012.22,2036.80,3351.77,3283.20,3539.59,350.26,346.25,13.12,0000 0000 0000 0000 000000
2014-10-21 06:36:51,0.03,0.21,0.00,23.29,27.32,30.04,4.74,27.61,1012.22,2036.65,3350.77,3283.01,3538.80,349.87,345.72,13.15,0000 0000 0000 0000 000000
2014-10-21 06:41:53,0.02,0.21,0.00,23.32,27.32,30.04,4.81,27.56,1012.22,2036.60,3349.84,3282.99,3538.03,350.06,346.02,13.18,0000 0000 0000 0000 000000
2014-10-21 06:46:54,0.06,0.21,0.00,23.23,27.32,30.06,4.76,27.32,1012.22,2036.69,3348.97,3282.97,3537.32,350.07,345.95,13.21,0000 0000 0000 0000 000000
2014-10-21 06:51:55,0.02,0.21,0.00,23.20,27.32,30.04,4.74,27.27,1012.22,2036.58,3348.09,3282.75,3536.92,349.20,344.89,13.24,0000 0000 0000 0000 000000
2014-10-21 06:56:56,0.08,0.22,0.00,23.25,27.32,30.04,4.71,27.16,1012.22,2036.73,3347.55,3282.29,3536.24,349.83,345.61,13.27,0000 0000 0000 0000 000000
2014-10-21 07:01:57,0.03,0.22,0.00,23.29,27.32,30.04,4.72,27.23,1012.22,2036.76,3346.78,3282.01,3535.99,349.34,345.02,13.30,0000 0000 0000 0000 000000
2014-10-21 07:06:58,0.04,0.22,0.00,23.34,27.32,30.04,4.68,27.16,1012.22,2036.80,3346.03,3282.00,3535.27,349.41,345.05,13.33,0000 0000 0000 0000 000000
2014-10-21 07:12:00,0.03,0.22,0.00,23.32,27.32,30.05,4.74,27.23,1012.22,2036.88,3345.37,3281.98,3534.97,349.55,345.35,13.36,0000 0000 0000 0000 000000
2014-10-21 07:17:01,0.02,0.22,0.00,23.30,27.32,30.04,4.73,27.52,1012.22,2036.85,3344.99,3281.95,3534.32,349.76,345.62,13.39,0000 0000 0000 0000 000000
2014-10-21 07:22:02,0.05,0.22,0.00,23.30,27.32,30.05,4.79,27.47,1012.22,2036.88,3344.17,3281.49,3533.99,350.16,345.94,13.42,0000 0000 0000 0000 000000
2014-10-21 07:27:04,0.04,0.22,0.00,23.37,27.32,30.06,4.72,27.38,1012.22,2036.82,3343.55,3281.07,3533.36,349.94,345.81,13.45,0000 0000 0000 0000 000000
2014-10-21 07:32:05,0.02,0.22,0.00,23.36,27.32,30.08,4.76,27.43,1012.22,2036.77,3342.86,3281.01,3532.96,349.48,345.15,13.47,0000 0000 0000 0000 000000
2014-10-21 07:37:06,0.01,0.23,0.00,23.23,27.32,30.08,4.75,27.44,1012.22,2036.62,3342.02,3280.99,3532.25,350.21,346.16,13.50,0000 0000 0000 0000 000000
2014-10-21 07:42:08,0.04,0.23,0.00,23.18,27.32,30.06,4.70,27.18,1012.22,2036.56,3341.22,3280.96,3531.97,349.61,345.85,13.53,0000 0000 0000 0000 000000
2014-10-21 07:47:09,0.06,0.23,0.00,23.27,27.32,30.07,4.79,27.31,1012.22,2036.76,3340.89,3280.90,3531.31,350.76,346.54,13.56,0000 0000 0000 0000 000000
2014-10-21 07:52:11,0.06,0.23,0.00,23.29,27.32,30.07,4.79,27.36,1012.23,2036.85,3340.07,3280.57,3531.00,350.13,345.91,13.59,0000 0000 0000 0000 000000
2014-10-21 07:57:12,0.04,0.23,0.00,23.28,27.32,30.09,4.83,27.51,1012.22,2036.80,3339.54,3280.08,3530.45,349.82,345.69,13.62,0000 0000 0000 0000 000000
2014-10-21 08:02:13,-0.01,0.23,0.00,23.33,27.32,30.09,4.76,27.24,1012.24,2036.63,3338.96,3280.00,3530.01,349.98,345.50,13.65,0000 0000 0000 0000 000000
2014-10-21 08:07:14,0.03,0.23,0.00,23.27,27.32,30.08,4.80,27.45,1012.22,2036.49,3338.15,3279.99,3529.62,350.51,346.35,13.68,0000 0000 0000 0000 000000
2014-10-21 08:12:15,0.03,0.23,0.00,23.27,27.32,30.09,4.80,27.41,1012.23,2036.63,3337.89,3279.98,3529.03,349.45,345.54,13.71,0000 0000 0000 0000 000000
2014-10-21 08:17:16,0.03,0.23,0.00,23.31,27.34,30.09,4.75,27.38,1012.23,2036.69,3337.10,3279.92,3528.97,350.05,345.97,13.74,0000 0000 0000 0000 000000
2014-10-21 08:22:18,0.02,0.23,0.00,23.32,27.35,30.10,4.76,27.33,1012.24,2036.54,3336.69,3279.49,3528.26,349.74,345.59,13.77,0000 0000 0000 0000 000000
2014-10-21 08:27:19,0.05,0.24,0.00,23.34,27.35,30.11,4.73,27.29,1012.26,2036.56,3336.03,3279.09,3528.00,350.11,345.87,13.80,0000 0000 0000 0000 000000
2014-10-21 08:32:20,0.02,0.24,0.00,23.36,27.35,30.11,4.76,27.27,1012.28,2036.66,3335.53,3279.02,3527.68,349.71,345.52,13.83,0000 0000 0000 0000 000000
2014-10-21 08:37:21,-0.02,0.24,0.00,23.35,27.35,30.13,4.72,27.52,1012.34,2036.42,3334.76,3278.99,3527.04,349.49,345.31,13.86,0000 0000 0000 0000 000000
2014-10-21 08:42:22,0.04,0.24,0.00,23.32,27.35,30.11,4.78,27.39,1012.50,2036.28,3334.04,3278.98,3526.85,350.02,346.00,13.89,0000 0000 0000 0000 000000
2014-10-21 08:47:24,0.01,0.24,0.00,23.35,27.35,30.13,4.75,27.52,1012.56,2036.15,3333.65,3278.71,3526.08,349.84,345.79,13.91,0000 0000 0000 0000 000000
2014-10-21 08:52:25,0.04,0.24,0.00,23.34,27.35,30.13,4.83,27.32,1012.59,2036.16,3333.00,3278.28,3525.93,350.06,345.89,13.94,0000 0000 0000 0000 000000
2014-10-21 08:57:26,0.04,0.24,0.00,23.31,27.35,30.12,4.72,27.37,1012.65,2036.08,3332.31,3278.01,3525.18,349.42,345.56,13.97,0000 0000 0000 0000 000000
2014-10-21 09:02:27,0.00,0.24,0.00,23.32,27.35,30.12,4.80,27.43,1012.69,2036.06,3331.90,3278.00,3524.99,349.68,345.58,14.00,0000 0000 0000 0000 000000
2014-10-21 09:07:28,0.03,0.24,0.00,23.33,27.37,30.14,4.83,27.43,1012.71,2036.05,3331.11,3278.00,3524.54,350.10,345.93,14.03,0000 0000 0000 0000 000000
2014-10-21 09:12:30,0.02,0.24,0.00,23.28,27.37,30.12,4.73,27.50,1012.71,2036.08,3330.60,3277.95,3524.02,349.47,345.54,14.06,0000 0000 0000 0000 000000
2014-10-21 09:17:31,0.02,0.24,0.00,23.31,27.37,30.15,4.78,27.50,1012.71,2036.02,3329.98,3277.69,3523.70,350.04,346.18,14.09,0000 0000 0000 0000 000000
2014-10-21 09:22:32,0.06,0.24,0.00,23.37,27.37,30.15,4.76,27.51,1012.71,2036.02,3329.17,3277.10,3523.03,350.09,345.92,14.12,0000 0000 0000 0000 000000
2014-10-21 09:27:33,0.04,0.24,0.00,23.34,27.37,30.14,4.74,27.44,1012.72,2036.02,3328.49,3277.00,3522.51,350.66,346.48,14.15,0000 0000 0000 0000 000000
2014-10-21 09:32:34,0.01,0.25,0.00,23.32,27.37,30.16,4.74,27.30,1012.74,2036.01,3327.94,3277.00,3522.02,349.89,345.80,14.18,0000 0000 0000 0000 000000
2014-10-21 09:37:36,0.04,0.25,0.00,23.32,27.37,30.13,4.76,27.65,1012.81,2036.01,3327.20,3276.92,3521.72,349.57,345.69,14.21,0000 0000 0000 0000 000000
2014-10-21 09:42:37,0.02,0.25,0.00,23.31,27.37,30.15,4.72,27.43,1013.06,2036.03,3326.79,3276.73,3521.06,349.73,345.97,14.24,0000 0000 0000 0000 000000
2014-10-21 09:47:38,0.05,0.25,0.00,23.30,27.37,30.17,4.74,27.48,1013.15,2036.01,3326.03,3276.14,3520.96,349.92,346.19,14.27,0000 0000 0000 0000 000000
2014-10-21 09:52:40,0.04,0.25,0.00,23.34,27.38,30.17,4.76,27.52,1013.18,2036.02,3325.49,3276.00,3520.26,349.27,345.41,14.29,0000 0000 0000 0000 000000
2014-10-21 09:57:41,0.00,0.25,0.00,23.31,27.39,30.15,4.81,27.46,1013.20,2036.00,3324.96,3276.00,3520.00,350.66,346.93,14.32,0000 0000 0000 0000 000000
2014-10-21 10:02:42,0.03,0.25,0.00,23.28,27.40,30.16,4.73,27.44,1013.20,2036.00,3324.18,3275.98,3519.80,349.73,345.95,14.35,0000 0000 0000 0000 000000
2014-10-21 10:07:43,0.02,0.25,0.00,23.33,27.40,30.16,4.72,27.54,1013.20,2036.00,3323.86,3275.88,3519.06,349.53,345.60,14.38,0000 0000 0000 0000 000000
2014-10-21 10:12:45,0.05,0.25,0.00,23.34,27.40,30.17,4.76,27.42,1013.22,2036.01,3323.10,3275.37,3518.99,349.67,345.72,14.41,0000 0000 0000 0000 000000
2014-10-21 10:17:45,0.04,0.25,0.00,23.27,27.40,30.20,4.81,27.54,1013.23,2036.00,3322.58,3275.06,3518.48,350.06,346.18,14.44,0000 0000 0000 0000 000000
2014-10-21 10:22:47,0.01,0.26,0.00,23.28,27.42,30.19,4.76,27.70,1013.23,2036.00,3321.97,3275.00,3518.01,350.38,346.55,14.47,0000 0000 0000 0000 000000
2014-10-21 10:27:47,0.03,0.26,0.00,23.34,27.42,30.19,4.79,27.64,1013.22,2036.00,3321.26,3274.98,3517.81,350.14,346.34,14.50,0000 0000 0000 0000 000000
2014-10-21 10:32:49,0.02,0.26,0.00,23.32,27.42,30.17,4.78,27.59,1013.20,2036.00,3320.98,3274.93,3517.10,350.45,346.47,14.53,0000 0000 0000 0000 000000
2014-10-21 10:37:50,0.06,0.26,0.00,23.29,27.42,30.19,4.75,27.60,1013.20,2036.00,3320.24,3274.39,3516.90,349.60,345.84,14.56,0000 0000 0000 0000 000000
2014-10-21 10:42:51,0.02,0.26,0.00,23.33,27.43,30.23,4.76,27.74,1013.20,2036.00,3319.92,3274.05,3516.27,350.30,346.35,14.59,0000 0000 0000 0000 000000
2014-10-21 10:47:52,0.02,0.26,0.00,23.34,27.44,30.20,4.77,27.69,1013.20,2036.00,3319.13,3274.00,3516.00,349.93,345.84,14.62,0000 0000 0000 0000 000000
2014-10-21 10:52:54,0.02,0.26,0.00,23.31,27.45,30.21,4.74,27.66,1013.19,2035.98,3318.77,3274.00,3515.81,349.68,345.85,14.65,0000 0000 0000 0000 000000
2014-10-21 10:57:55,0.03,0.26,0.00,23.30,27.45,30.22,4.75,27.52,1013.20,2035.99,3318.05,3273.97,3515.09,349.63,345.64,14.68,0000 0000 0000 0000 000000
2014-10-21 11:02:56,0.01,0.26,0.00,23.35,27.45,30.24,4.74,27.68,1013.07,2035.99,3317.89,3273.92,3515.01,349.42,345.49,14.70,0000 0000 0000 0000 000000
2014-10-21 11:07:58,0.03,0.26,0.00,23.33,27.45,30.18,4.78,27.73,1012.85,2035.99,3317.14,3273.85,3514.97,349.85,345.81,14.73,0000 0000 0000 0000 000000
2014-10-21 11:12:59,0.05,0.27,0.00,23.31,27.46,30.24,4.76,27.92,1012.72,2035.99,3316.94,3273.26,3514.21,350.15,345.99,14.76,0000 0000 0000 0000 000000
2014-10-21 11:18:00,0.03,0.27,0.00,23.32,27.47,30.25,4.79,27.91,1012.72,2035.99,3316.19,3273.04,3514.00,349.87,345.83,14.79,0000 0000 0000 0000 000000
2014-10-21 11:23:02,0.00,0.27,0.00,23.32,27.47,30.26,4.77,28.02,1012.72,2035.99,3315.96,3273.01,3513.92,350.25,345.99,14.82,0000 0000 0000 0000 000000
2014-10-21 11:28:03,0.04,0.27,0.00,23.34,27.47,30.26,4.82,27.80,1012.71,2035.99,3315.21,3273.00,3513.17,350.29,346.02,14.85,0000 0000 0000 0000 000000
2014-10-21 11:33:04,0.00,0.27,0.00,23.37,27.47,30.26,4.70,27.68,1012.72,2035.99,3314.96,3272.94,3513.00,349.68,345.75,14.88,0000 0000 0000 0000 000000
2014-10-21 11:38:05,0.06,0.27,0.00,23.30,27.47,30.25,4.76,27.88,1012.73,2035.99,3314.19,3272.43,3512.62,350.73,346.86,14.91,0000 0000 0000 0000 000000
2014-10-21 11:43:06,0.01,0.27,0.00,23.28,27.47,30.25,4.75,27.93,1012.74,2035.99,3314.00,3272.41,3512.09,349.31,345.36,14.94,0000 0000 0000 0000 000000
2014-10-21 11:48:08,0.02,0.27,0.00,23.32,27.47,30.26,4.77,27.68,1012.86,2035.97,3313.77,3272.10,3512.01,350.39,346.31,14.97,0000 0000 0000 0000 000000
2014-10-21 11:53:09,0.02,0.27,0.00,23.35,27.48,30.26,4.81,27.77,1013.09,2035.93,3313.04,3272.00,3511.90,349.72,345.91,15.00,0000 0000 0000 0000 000000
2014-10-21 11:58:10,0.01,0.27,0.00,23.32,27.49,30.24,4.75,27.67,1013.16,2035.92,3312.96,3272.00,3511.26,350.34,346.37,15.03,0000 0000 0000 0000 000000
2014-10-21 12:03:12,0.03,0.27,0.00,23.31,27.49,30.26,4.78,27.71,1013.17,2035.91,3312.25,3272.00,3511.02,349.56,345.72,15.06,0000 0000 0000 0000 000000
2014-10-21 12:08:13,0.00,0.27,0.00,23.36,27.50,30.26,4.81,27.61,1013.19,2035.89,3312.02,3271.99,3510.99,350.39,346.43,15.09,0000 0000 0000 0000 000000
2014-10-21 12:13:14,-0.00,0.27,0.00,23.34,27.50,30.23,4.78,27.60,1013.20,2035.90,3311.99,3271.97,3510.96,349.93,345.75,15.11,0000 0000 0000 0000 000000
2014-10-21 12:18:15,0.02,0.27,0.00,23.32,27.50,30.24,4.72,27.77,1013.19,2035.92,3311.84,3271.95,3510.64,349.90,346.06,15.14,0000 0000 0000 0000 000000
2014-10-21 12:23:16,0.05,0.27,0.00,23.35,27.50,30.25,4.77,27.53,1013.19,2035.89,3311.07,3271.56,3510.05,349.47,345.66,15.17,0000 0000 0000 0000 000000
2014-10-21 12:28:17,0.01,0.28,0.00,23.32,27.51,30.23,4.77,27.80,1013.17,2035.92,3310.99,3271.23,3510.00,349.90,345.88,15.20,0000 0000 0000 0000 000000
2014-10-21 12:33:18,0.01,0.28,0.00,23.31,27.52,30.26,4.79,27.68,1013.20,2035.85,3310.51,3271.03,3509.96,350.20,346.56,15.23,0000 0000 0000 0000 000000
2014-10-21 12:38:19,-0.03,0.28,0.00,23.35,27.52,30.30,4.80,27.84,1013.20,2035.55,3310.03,3271.00,3509.42,349.60,345.47,15.26,0000 0000 0000 0000 000000
2014-10-21 12:43:21,0.01,0.28,0.00,23.35,27.52,30.27,4.70,27.77,1013.20,2035.43,3309.96,3271.00,3509.03,349.38,345.41,15.29,0000 0000 0000 0000 000000
2014-10-21 12:48:22,-0.00,0.27,0.00,23.32,27.52,30.28,4.76,27.62,1013.19,2035.24,3309.28,3270.98,3508.99,349.98,346.22,15.32,0000 0000 0000 0000 000000
2014-10-21 12:53:23,0.00,0.28,0.00,23.35,27.52,30.29,4.77,27.73,1013.16,2035.25,3309.01,3270.97,3508.89,349.67,345.76,15.35,0000 0000 0000 0000 000000
2014-10-21 12:58:25,0.03,0.28,0.00,23.32,27.53,30.26,4.80,27.73,1013.08,2035.06,3308.80,3270.55,3508.18,350.05,346.20,15.38,0000 0000 0000 0000 000000